Weather History for EKCH - February, 2013

Change the Weather History Date:

Saturday, February 16, 2013

  Actual Average Record
Temperature  
Mean Temperature 34 °F -  
Max Temperature 35 °F 39 °F 48 °F (1998)
Min Temperature 33 °F 30 °F 17 °F (1997)
Degree Days  
Heating Degree Days 31    
Moisture  
Dew Point 31 °F    
Average Humidity 89    
Maximum Humidity 100    
Minimum Humidity 74    
Precipitation  
Precipitation 0.00 in - - ()
Sea Level Pressure  
Sea Level Pressure 30.27 in    
Wind  
Wind Speed 5 mph ()    
Max Wind Speed 8 mph    
Max Gust Speed -    
Visibility 4.8 miles    
Events      
Averages and records for this station are not official NWS values.
T = Trace of Precipitation, MM = Missing Value Source: Averaged Metar Reports

Daily Weather History Graph

Daily Weather History Graph

Search for Another Location

Airport or City:

Trip Planner

Search our weather history database for the weather conditions in past years. The results will help you decide how hot, cold, wet, or windy it might be!

Date:

Astronomy

Feb. 16, 2013 Rise Set
Actual Time 7:31 AM CET 5:16 PM CET
Civil Twilight 6:52 AM CET 5:54 PM CET
Nautical Twilight 6:10 AM CET 6:38 PM CET
Astronomical Twilight 5:27 AM CET 7:20 PM CET
Moon 9:18 AM CET (2/16) 12:11 AM CET (2/16)
Length of Visible Light 11h 02m
Length of Day
9h 45m
Waxing Crescent, 37% of the Moon is Illuminated
Feb 16
Waxing Crescent
Feb 17
First Quarter
Feb 25
Full
Mar 4
Last Quarter
Mar 11
New

Hourly Weather History & Observations

Time (CET) Temp. Windchill Dew Point Humidity Pressure Visibility Wind Dir Wind Speed Gust Speed Precip Events Conditions
12:20 AM 33.8 °F 27.7 °F 30.2 °F 87% 30.21 in 6.2 mi East 6.9 mph - N/A   Overcast
12:50 AM 33.8 °F 28.6 °F 30.2 °F 87% 30.21 in 6.2 mi East 5.8 mph - N/A   Overcast
1:00 AM 34 °F - 31 °F 83% 30.23 in 6 mi East 5.8 mph - -   Overcast
1:20 AM 33.8 °F 27.7 °F 30.2 °F 87% 30.21 in 6.2 mi ESE 6.9 mph - N/A   Overcast
1:50 AM 33.8 °F 27.7 °F 30.2 °F 87% 30.21 in 6.2 mi ESE 6.9 mph - N/A   Overcast
2:20 AM 33.8 °F 27.7 °F 30.2 °F 87% 30.21 in 6.2 mi SE 6.9 mph - N/A   Overcast
2:50 AM 33.8 °F 28.6 °F 30.2 °F 87% 30.21 in 6.2 mi East 5.8 mph - N/A   Overcast
3:20 AM 33.8 °F 28.6 °F 30.2 °F 87% 30.21 in 6.2 mi East 5.8 mph - N/A   Overcast
3:50 AM 33.8 °F 28.6 °F 30.2 °F 87% 30.21 in 6.2 mi ESE 5.8 mph - N/A   Overcast
4:00 AM 34 °F - 31 °F 83% 30.22 in 7 mi ESE 6.9 mph - -   Overcast
4:20 AM 33.8 °F 27.7 °F 30.2 °F 87% 30.21 in 6.2 mi ESE 6.9 mph - N/A   Overcast
4:50 AM 33.8 °F 27.7 °F 30.2 °F 87% 30.21 in 6.2 mi ESE 6.9 mph - N/A   Overcast
5:20 AM 33.8 °F 27.7 °F 30.2 °F 87% 30.21 in 6.2 mi SE 6.9 mph - N/A   Overcast
5:50 AM 33.8 °F 28.6 °F 30.2 °F 87% 30.21 in 6.2 mi East 5.8 mph - N/A   Overcast
6:20 AM 33.8 °F 28.6 °F 30.2 °F 87% 30.24 in 6.2 mi East 5.8 mph - N/A   Overcast
6:50 AM 33.8 °F 29.6 °F 32.0 °F 93% 30.24 in 5.6 mi East 4.6 mph - N/A   Overcast
7:00 AM 34 °F - 32 °F 87% 30.25 in 6 mi East 4.6 mph - -   Mist
7:20 AM 33.8 °F 30.8 °F 32.0 °F 93% 30.24 in 4.3 mi East 3.5 mph - N/A   Overcast
7:50 AM 33.8 °F 29.6 °F 32.0 °F 93% 30.24 in 3.7 mi East 4.6 mph - N/A   Overcast
8:20 AM 33.8 °F 29.6 °F 32.0 °F 93% 30.24 in 3.1 mi East 4.6 mph - N/A   Overcast
8:50 AM 33.8 °F 28.6 °F 32.0 °F 93% 30.27 in 2.5 mi East 5.8 mph - N/A   Overcast
9:20 AM 33.8 °F 28.6 °F 32.0 °F 93% 30.27 in 2.5 mi East 5.8 mph - N/A   Overcast
9:50 AM 33.8 °F 28.6 °F 32.0 °F 93% 30.27 in 2.5 mi East 5.8 mph - N/A   Mostly Cloudy
10:00 AM 34 °F - 33 °F 94% 30.28 in 2 mi East 6.9 mph - -   Mist
10:20 AM 33.8 °F 29.6 °F 32.0 °F 93% 30.27 in 4.3 mi East 4.6 mph - N/A   Mostly Cloudy
10:50 AM 33.8 °F 27.7 °F 30.2 °F 87% 30.27 in 6.2 mi ESE 6.9 mph - N/A   Overcast
11:20 AM 35.6 °F 30.7 °F 30.2 °F 81% 30.27 in 6.2 mi ESE 5.8 mph - N/A   Overcast
11:50 AM 35.6 °F 32.8 °F 30.2 °F 81% 30.30 in 6.2 mi SE 3.5 mph - N/A   Overcast
12:20 PM 35.6 °F 31.7 °F 30.2 °F 81% 30.30 in 6.2 mi ESE 4.6 mph - N/A   Overcast
12:50 PM 35.6 °F 32.8 °F 30.2 °F 81% 30.30 in 6.2 mi ESE 3.5 mph - N/A   Overcast
1:00 PM 35 °F - 30 °F 74% 30.30 in 7 mi ESE 4.6 mph - -   Overcast
1:20 PM 35.6 °F 32.8 °F 30.2 °F 81% 30.27 in 6.2 mi ESE 3.5 mph - N/A   Overcast
1:50 PM 33.8 °F 30.8 °F 30.2 °F 87% 30.27 in 6.2 mi NE 3.5 mph - N/A   Overcast
2:20 PM 33.8 °F 30.8 °F 30.2 °F 87% 30.27 in 6.2 mi NE 3.5 mph - N/A   Overcast
2:50 PM 33.8 °F 30.8 °F 30.2 °F 87% 30.30 in 6.2 mi NE 3.5 mph - N/A   Overcast
3:20 PM 33.8 °F 29.6 °F 32.0 °F 93% 30.30 in 6.2 mi NE 4.6 mph - N/A   Overcast
3:50 PM 33.8 °F 30.8 °F 30.2 °F 87% 30.30 in 5.6 mi NE 3.5 mph - N/A   Mostly Cloudy
4:00 PM 34 °F - 31 °F 82% 30.31 in 6 mi NE 3.5 mph - -   Mist
4:20 PM 33.8 °F 30.8 °F 30.2 °F 87% 30.30 in 5.0 mi NE 3.5 mph - N/A   Mostly Cloudy
4:50 PM 33.8 °F 30.8 °F 32.0 °F 93% 30.30 in 5.0 mi ENE 3.5 mph - N/A   Mostly Cloudy
5:20 PM 33.8 °F 30.8 °F 32.0 °F 93% 30.30 in 4.3 mi NE 3.5 mph - N/A   Mostly Cloudy
5:50 PM 33.8 °F 29.6 °F 32.0 °F 93% 30.30 in 4.3 mi NE 4.6 mph - N/A   Overcast
6:20 PM 33.8 °F 29.6 °F 32.0 °F 93% 30.30 in 3.7 mi ENE 4.6 mph - N/A   Overcast
6:50 PM 33.8 °F 29.6 °F 32.0 °F 93% 30.30 in 3.7 mi East 4.6 mph - N/A   Overcast
7:00 PM 34 °F - 33 °F 93% 30.33 in 3 mi East 4.6 mph - -   Mist
7:20 PM 33.8 °F 29.6 °F 32.0 °F 93% 30.33 in 2.8 mi East 4.6 mph - N/A   Overcast
7:50 PM 33.8 °F 29.6 °F 33.8 °F 100% 30.33 in 2.5 mi East 4.6 mph - N/A   Overcast
8:20 PM 33.8 °F 28.6 °F 33.8 °F 100% 30.33 in 2.5 mi East 5.8 mph - N/A   Mostly Cloudy
8:50 PM 33.8 °F 28.6 °F 32.0 °F 93% 30.33 in 2.5 mi ESE 5.8 mph - N/A   Mostly Cloudy
9:20 PM 33.8 °F 27.7 °F 32.0 °F 93% 30.33 in 2.5 mi ESE 6.9 mph - N/A   Mostly Cloudy
9:50 PM 33.8 °F 27.7 °F 32.0 °F 93% 30.33 in 2.5 mi ESE 6.9 mph - N/A   Mostly Cloudy
10:00 PM 34 °F - 33 °F 93% 30.35 in 2 mi ESE 8.1 mph - -   Mist
10:20 PM 33.8 °F 27.0 °F 32.0 °F 93% 30.33 in 2.5 mi ESE 8.1 mph - N/A   Mostly Cloudy
10:50 PM 33.8 °F 27.7 °F 32.0 °F 93% 30.33 in 2.8 mi ESE 6.9 mph - N/A   Mostly Cloudy
11:20 PM 33.8 °F 27.7 °F 32.0 °F 93% 30.33 in 3.1 mi ESE 6.9 mph - N/A   Mostly Cloudy
11:50 PM 33.8 °F 27.7 °F 32.0 °F 93% 30.33 in 3.7 mi ESE 6.9 mph - N/A   Mostly Cloudy